sat.trackr.live / text

‹ back to catalog

NANOFF A

NORAD 58810 · 2023-185T

PAYLOAD ACTIVE UNKNOWN

§ Identity

Operator
Country
GER
Launch date
2023-12-01
Launch site
AFWTR
Launch vehicle
Mass (kg)
RCS (m²)

External: N2YO · Heavens-Above · Gunter

§ Orbital elements

Epoch: 2026-05-25T03:53:56.779008Z

Period
95.23 min
Inclination
97.5269°
Eccentricity
0.0010860
Mean motion
15.12109390 rev/d
Perigee alt
522.3 km
Apogee alt
537.3 km
Semi-major
6,907.9 km
B*
1.7874e-4
RAAN
212.9350°
Arg perigee
36.1774°
Mean anomaly
324.0189°
Rev number
12,956

§ Raw data

NANOFF A1 58810U 23185T   26145.16246272  .00003017  00000+0  17874-3 0  99992 58810  97.5269 212.9350 0010860  36.1774 324.0189 15.12109390129568

JSON: /api/v1/satellites/58810 · /tle

For live sub-satellite position, see the globe view (requires WebGL).

§ Visibility from observer

Set your observer location to see the next 7 days of passes ≥ 10°. The values pass through the URL so the page stays shareable.

No JS? Fill the form by hand. The geolocation button needs JavaScript.

§ Radio — SatNOGS DB

ModeDescriptionDownlinkUplink
FMN CW/FM (F2A) Beacon 435.950 MHz
GMSK GMSK4k8 Telemetry 435.950 MHz
FM S-band telemetry 2.264 GHz
GMSK GMSK9k6 Telemetry (inactive) 435.950 MHz

4 transmitters · refreshed weekly from db.satnogs.org